Weather History for MMPB - August, 2013

Change the Weather History Date:

Friday, August 30, 2013

  Actual Average Record
Temperature  
Mean Temperature 63 °F -  
Max Temperature 76 °F 71 °F 86 °F (2006)
Min Temperature 50 °F 52 °F 50 °F (2010)
Degree Days  
Heating Degree Days 2    
Growing Degree Days 13 (Base 50)    
Moisture  
Dew Point 51 °F    
Average Humidity 65    
Maximum Humidity 94    
Minimum Humidity 23    
Precipitation  
Precipitation 0.00 in - - ()
Sea Level Pressure  
Sea Level Pressure 30.21 in    
Wind  
Wind Speed 3 mph ()    
Max Wind Speed 14 mph    
Max Gust Speed -    
Visibility 8.4 miles    
Events      
Averages and records for this station are not official NWS values.
T = Trace of Precipitation, MM = Missing Value Source: Averaged Metar Reports

Daily Weather History Graph

Daily Weather History Graph

Search for Another Location

Airport or City:

Trip Planner

Search our weather history database for the weather conditions in past years. The results will help you decide how hot, cold, wet, or windy it might be!

Date:

Astronomy

Aug. 30, 2013 Rise Set
Actual Time 7:18 AM CDT 7:49 PM CDT
Civil Twilight 6:55 AM CDT 8:11 PM CDT
Nautical Twilight 6:29 AM CDT 8:37 PM CDT
Astronomical Twilight 6:03 AM CDT 9:04 PM CDT
Moon 2:21 AM CDT (8/30) 3:43 PM CDT (8/30)
Length of Visible Light 13h 15m
Length of Day
12h 31m
Waning Crescent, 29% of the Moon is Illuminated
Aug 30
Waning Crescent
Sep 5
New
Sep 12
First Quarter
Sep 19
Full
Sep 26
Last Quarter

Hourly Weather History & Observations

Time (CDT) Temp. Dew Point Humidity Pressure Visibility Wind Dir Wind Speed Gust Speed Precip Events Conditions
12:58 AM 59 °F 54 °F 79% 29.93 in 3 mi Calm Calm - -   Partly Cloudy
3:50 AM 57 °F 54 °F 85% 29.96 in 3 mi Calm Calm - -   Scattered Clouds
5:57 AM 50.0 °F 48.2 °F 94% 30.36 in 6.0 mi NW 5.8 mph - N/A   Scattered Clouds
6:45 AM 50.0 °F 48.2 °F 94% 30.36 in 7.0 mi WNW 4.6 mph - N/A   Scattered Clouds
6:58 AM 55 °F 52 °F 85% 29.93 in 3 mi Calm Calm - -   Mostly Cloudy
7:41 AM 50.0 °F 46.4 °F 87% 30.36 in 8.0 mi NNW 4.6 mph - N/A   Scattered Clouds
8:41 AM 55.4 °F 50.0 °F 82% 30.37 in 8.0 mi North 4.6 mph - N/A   Mostly Cloudy
9:44 AM 60.8 °F 50.0 °F 68% 30.39 in 9.0 mi NW 5.8 mph - N/A   Scattered Clouds
10:41 AM 64.4 °F 48.2 °F 56% 30.40 in 10.0 mi NNW 4.6 mph - N/A   Mostly Cloudy
11:40 AM 66.2 °F 48.2 °F 52% 30.39 in 10.0 mi ENE 3.5 mph - N/A   Mostly Cloudy
12:47 PM 69.8 °F 50.0 °F 49% 30.37 in 10.0 mi SE 3.5 mph - N/A   Mostly Cloudy
12:50 PM 70 °F 49 °F 36% 29.95 in 6 mi SE 2.2 mph - -   Haze
1:42 PM 71.6 °F 51.8 °F 50% 30.36 in 10.0 mi SSW 3.5 mph - N/A   Mostly Cloudy
2:43 PM 71.6 °F 50.0 °F 46% 30.34 in 11.0 mi SSE 10.4 mph - N/A   Mostly Cloudy
3:40 PM 75 °F 45 °F 23% 29.81 in 12 mi SSE 2.2 mph - -   Overcast
3:42 PM 71.6 °F 51.8 °F 50% 30.32 in 11.0 mi SSW 9.2 mph - N/A   Mostly Cloudy
4:43 PM 73.4 °F 51.8 °F 47% 30.29 in 11.0 mi SE 5.8 mph - N/A   Mostly Cloudy
5:42 PM 71.6 °F 51.8 °F 50% 30.29 in 11.0 mi South 5.8 mph - N/A   Mostly Cloudy
6:40 PM 68 °F 51 °F 45% 29.74 in 12 mi SSE 2.2 mph - -   Mostly Cloudy
6:41 PM 68.0 °F 53.6 °F 60% 30.29 in 11.0 mi South 13.8 mph - N/A   Mostly Cloudy
7:53 PM 62.6 °F 53.6 °F 72% 30.31 in 10.0 mi SSW 10.4 mph - N/A   Mostly Cloudy
8:42 PM 60.8 °F 55.4 °F 82% 30.32 in 9.0 mi SSW 8.1 mph - N/A   Mostly Cloudy
9:43 PM 59.0 °F 55.4 °F 88% 30.34 in 9.0 mi South 4.6 mph - N/A   Mostly Cloudy
9:58 PM 65 °F 52 °F 52% 29.76 in 3 mi Calm Calm - -   Partly Cloudy
10:42 PM 59.0 °F 57.2 °F 94% 30.36 in 7.0 mi North 3.5 mph - N/A   Mostly Cloudy